[[{"header":{"parameterUnit":"m.s-1","parameterCategory":1,"la1":30.2991,"la2":30.254,"lo1":-89.0895,"lo2":-89.0444,"dy":0.0017,"dx":0.0017,"nx":28,"ny":28,"refTime":"2025-04-14T21:00:00:Z","depth":0,"parameterNumber":2,"parameterNumberName":"U-component_of_WINDS"},"data":[0,0,0,0,0,0,0,0,0,0,0,0,0,0,0,0,0,0,0,0,0,0,0,0,0,0,0,0,0,0,0,0,0,0,0,0,0,0,0,0,0,0,0,0,0,0,0,0,0,0,0,0,0,0,0,0,0,0,0.1565,0.1565,0,0.1534,0.1534,0.1533,0.1541,0.1542,0.1542,0.1543,0.1506,0.1505,0.1503,0,0,0,0,0,0,0,0,0,0,0,0,0,0.1628,0.1627,0.1565,0.1565,0.1565,0.1534,0.1534,0.1533,0.1541,0.1542,0.1542,0.1543,0.1507,0.1505,0.1503,0,0,0,0,0,0,0,0,0,0,0,0,0,0.1599,0.1626,0.1565,0.1565,0.1564,0.1534,0.1534,0.1533,0.1541,0.1542,0.1542,0.1543,0.1507,0.1505,0.1503,0.147,0,0,0.1496,0.1495,0,0,0,0,0,0,0,0,0.16,0.1597,0.1565,0.1565,0.1564,0.1542,0.1542,0.1512,0.154,0.1549,0.1543,0.1544,0.1517,0.1514,0.1506,0.1468,0.1466,0.1495,0.1494,0.1493,0.1492,0,0,0,0,0,0,0,0.1602,0.1598,0.1553,0.1565,0.1564,0.1565,0.1562,0.1537,0.1528,0.1549,0.1549,0.1546,0.1517,0.1508,0.1505,0.1466,0.1495,0.1493,0.1492,0.1491,0.1399,0.1398,0,0,0,0,0,0,0.1605,0.16,0.1554,0.1552,0.1585,0.1563,0.156,0.1548,0.1529,0.1527,0.1545,0.1546,0.1512,0.1508,0.1504,0.1464,0.1493,0.1491,0.1489,0.14,0.1399,0.1398,0,0,0,0,0,0,0.1607,0.1601,0.1555,0.1576,0.157,0.1561,0.1548,0.1547,0.1539,0.1526,0.1524,0.1538,0.1512,0.1507,0.1479,0.1463,0.149,0.1488,0.1402,0.14,0.1399,0.1384,0,0,0,0,0,0,0.1609,0.1602,0.159,0.1576,0.1569,0.1531,0.1547,0.1546,0.1535,0.1536,0.1519,0.1516,0.1513,0.1482,0.1476,0.146,0.1486,0.1403,0.1401,0.1399,0.1385,0.1382,0.1379,0,0,0,0,0,0.1611,0.1586,0.1589,0.1584,0.1554,0.153,0.1526,0.1524,0.1534,0.1521,0.1513,0.1517,0.1466,0.1479,0.1473,0.1455,0.1404,0.1402,0.1399,0.1387,0.1382,0.1379,0,0,0,0,0,0,0.1596,0.1584,0.1587,0.1558,0.1545,0.1532,0.1516,0.1519,0.1502,0.1504,0.15,0.1496,0.1467,0.1458,0.1473,0.1423,0.1436,0.1432,0.1429,0.1425,0.1421,0.1423,0.1484,0,0,0,0,0,0.159,0.1573,0.1563,0.1537,0.1531,0.1525,0.1514,0.1514,0.15,0.1494,0.1484,0.1469,0.145,0.1437,0.1418,0.1385,0.1381,0.137,0.1367,0.1364,0.136,0.1341,0.1336,0.139,0.139,0.139,0,0,0.1576,0.1567,0.1557,0.1534,0.1525,0.1506,0.152,0.1499,0.1485,0.149,0.1463,0.1455,0.1439,0.1407,0.1393,0.1399,0.1345,0.1361,0.1359,0.1356,0.1338,0.1333,0.1329,0.1389,0.1389,0.1389,0,0,0.1541,0.1533,0.1511,0.1502,0.1488,0.1484,0.1479,0.1465,0.1461,0.1434,0.1437,0.142,0.1387,0.1375,0.1364,0.1326,0.1329,0.132,0.1302,0.1284,0.1279,0.1276,0.1261,0.1256,0.1317,0.1317,0.1317,0,0.1525,0.1499,0.1499,0.1479,0.1468,0.1475,0.1452,0.1442,0.1422,0.1414,0.1422,0.1381,0.137,0.1336,0.1327,0.1319,0.1312,0.1322,0.128,0.1276,0.1273,0.1259,0.1254,0.1316,0.1316,0.1316,0.1316,0,0.1479,0.1461,0.1444,0.1427,0.1415,0.1393,0.1389,0.1377,0.1378,0.1373,0.1345,0.1333,0.1312,0.1304,0.1304,0.127,0.1275,0.1282,0.1295,0.1267,0.1254,0.1248,0.1315,0.1315,0.1315,0.1316,0,0,0.1432,0.1417,0.1411,0.1403,0.1389,0.1374,0.1352,0.1334,0.1323,0.1309,0.129,0.1263,0.127,0.1258,0.1257,0.1241,0.1211,0.125,0.1249,0.1242,0.1172,0.1166,0.116,0.1213,0.1212,0.1212,0.1173,0,0.1395,0.1359,0.1359,0.1325,0.1308,0.1314,0.1295,0.1284,0.1279,0.1262,0.1257,0.1237,0.1248,0.1241,0.1226,0.1218,0.1197,0.1221,0.1194,0.1193,0.1197,0.1153,0.1146,0.111,0.1168,0.1167,0.1167,0,0.1347,0.1333,0.1298,0.1287,0.128,0.1263,0.1246,0.1231,0.1218,0.1215,0.1203,0.1205,0.1182,0.1197,0.1165,0.1181,0.1171,0.1165,0.1164,0.116,0.1177,0.1147,0.1099,0.1093,0.1159,0.1159,0.116,0,0.1315,0.1288,0.1263,0.1257,0.1243,0.1231,0.1225,0.1213,0.1202,0.1187,0.118,0.1162,0.1152,0.1138,0.1134,0.1146,0.1101,0.1117,0.1097,0.1097,0.1086,0.1086,0.1035,0.1082,0.1082,0.1082,0.1082,0,0.1273,0.125,0.1249,0.1234,0.1209,0.121,0.1185,0.1179,0.1169,0.1152,0.1156,0.1139,0.1136,0.1119,0.1116,0.1089,0.1085,0.1081,0.108,0.108,0.108,0.1072,0.1073,0.108,0.1081,0.1081,0.1081,0,0.1232,0.1231,0.1204,0.1195,0.1192,0.1174,0.1165,0.1149,0.1146,0.1124,0.1119,0.1113,0.1093,0.1088,0.1064,0.1062,0.103,0.1032,0.1034,0.1034,0.1015,0.1016,0.0954,0.0946,0.1,0.0999,0.0999,0,0.1204,0.1188,0.1177,0.1167,0.116,0.1143,0.1133,0.1133,0.1122,0.1106,0.1093,0.1074,0.1058,0.1025,0.1018,0.0999,0.1,0.098,0.0997,0.0997,0.0998,0.0999,0.0997,0.0976,0.0975,0.0975,0.0974,0,0.1155,0.1155,0.1141,0.1126,0.1114,0.1102,0.109,0.1081,0.108,0.1067,0.1047,0.1035,0.1012,0.0992,0.0974,0.0966,0.0969,0.0969,0.0964,0.0962,0.0964,0.0962,0.1024,0.097,0.097,0.0971,0.0971,0.0971,0.1119,0.1104,0.1095,0.1079,0.1071,0.106,0.1046,0.1041,0.1025,0.1007,0.1008,0.0986,0.0974,0.095,0.0942,0.0924,0.093,0.0922,0.092,0.0917,0.0915,0.0968,0.0921,0.0921,0.0921,0.0921,0.0921,0,0.1069,0.1064,0.1049,0.1034,0.1021,0.1028,0.1016,0.1004,0.0985,0.0975,0.096,0.0937,0.0919,0.0911,0.0892,0.0879,0.088,0.0874,0.0874,0.0872,0.0911,0.0917,0.0874,0.0874,0.0874,0.0874,0.0874,0.0874,0.1041,0.1017,0.1017,0.0988,0.0983,0.0963,0.0956,0.0946,0.0937,0.0912,0.0898,0.0893,0.0883,0.0864,0.0847,0.0845,0.0838,0.083,0.0829,0.0865,0.087,0.0874,0.088,0.0829,0.0829,0.0792,0.0791,0.0791]},{"header":{"parameterUnit":"m.s-1","parameterCategory":1,"la1":30.2991,"la2":30.254,"lo1":-89.0895,"lo2":-89.0444,"dy":0.0017,"dx":0.0017,"nx":28,"ny":28,"refTime":"2025-04-14T21:00:00:Z","depth":0,"parameterNumber":3,"parameterNumberName":"V-component_of_WINDS"},"data":[0,0,0,0,0,0,0,0,0,0,0,0,0,0,0,0,0,0,0,0,0,0,0,0,0,0,0,0,0,0,0,0,0,0,0,0,0,0,0,0,0,0,0,0,0,0,0,0,0,0,0,0,0,0,0,0,0,0,-4.1,-4.1,0,-4.1036,-4.1037,-4.1037,-4.0942,-4.0939,-4.0936,-4.0933,-4.0968,-4.0972,-4.0976,0,0,0,0,0,0,0,0,0,0,0,0,0,-4.0845,-4.0848,-4.0999,-4.1,-4.1,-4.1036,-4.1037,-4.1037,-4.0942,-4.0939,-4.0935,-4.0932,-4.0967,-4.0972,-4.0976,0,0,0,0,0,0,0,0,0,0,0,0,0,-4.09,-4.0849,-4.0999,-4.0957,-4.0954,-4.1036,-4.1037,-4.1037,-4.0943,-4.0938,-4.0934,-4.093,-4.0966,-4.0971,-4.0977,-4.11,0,0,-4.0994,-4.0996,0,0,0,0,0,0,0,0,-4.0897,-4.0906,-4.0963,-4.096,-4.0957,-4.098,-4.0995,-4.1058,-4.0944,-4.0947,-4.0933,-4.0928,-4.0976,-4.098,-4.0997,-4.1102,-4.1103,-4.0994,-4.0997,-4.1,-4.1001,0,0,0,0,0,0,0,-4.0893,-4.0904,-4.1014,-4.0964,-4.096,-4.0936,-4.0939,-4.1007,-4.0986,-4.0946,-4.094,-4.0945,-4.0973,-4.0992,-4.0997,-4.1104,-4.0994,-4.0999,-4.1002,-4.1005,-4.1313,-4.1317,0,0,0,0,0,0,-4.0895,-4.0901,-4.1013,-4.1015,-4.0915,-4.0942,-4.0946,-4.0977,-4.0985,-4.0982,-4.0949,-4.0941,-4.0984,-4.099,-4.0998,-4.1144,-4.1,-4.1005,-4.1008,-4.1308,-4.1314,-4.1319,0,0,0,0,0,0,-4.0892,-4.0906,-4.1011,-4.0956,-4.0968,-4.095,-4.0986,-4.098,-4.0998,-4.0987,-4.0983,-4.0972,-4.0981,-4.099,-4.1076,-4.1144,-4.1008,-4.1013,-4.1302,-4.131,-4.1317,-4.1436,0,0,0,0,0,0,-4.0888,-4.0906,-4.0953,-4.0958,-4.0971,-4.109,-4.099,-4.0984,-4.1009,-4.0998,-4.1007,-4.1005,-4.0978,-4.1068,-4.1081,-4.1149,-4.1017,-4.1296,-4.1306,-4.1314,-4.1426,-4.1447,-4.1464,0,0,0,0,0,-4.0883,-4.0985,-4.0956,-4.097,-4.103,-4.1094,-4.1101,-4.1069,-4.1014,-4.1062,-4.1054,-4.1004,-4.1134,-4.1078,-4.1092,-4.1162,-4.1292,-4.1303,-4.1314,-4.1418,-4.1443,-4.1464,0,0,0,0,0,0,-4.0987,-4.0985,-4.0953,-4.1059,-4.1078,-4.1078,-4.1136,-4.1097,-4.1131,-4.1119,-4.1077,-4.108,-4.1174,-4.1176,-4.1114,-4.1282,-4.1203,-4.1218,-4.1278,-4.1301,-4.132,-4.1318,-4.1022,0,0,0,0,0,-4.1023,-4.1075,-4.107,-4.1164,-4.1175,-4.1155,-4.1181,-4.1155,-4.1172,-4.1179,-4.1178,-4.1196,-4.124,-4.1271,-4.1311,-4.1426,-4.1427,-4.1481,-4.15,-4.1516,-4.1529,-4.159,-4.1614,-4.1355,-4.1355,-4.1355,0,0,-4.1096,-4.1101,-4.1137,-4.1185,-4.1196,-4.1252,-4.1162,-4.1223,-4.1264,-4.1188,-4.127,-4.127,-4.1287,-4.1388,-4.1432,-4.1392,-4.1601,-4.153,-4.1542,-4.1547,-4.1604,-4.1628,-4.165,-4.1362,-4.1361,-4.136,0,0,-4.1259,-4.1268,-4.1348,-4.1361,-4.138,-4.1365,-4.1385,-4.1391,-4.1388,-4.1469,-4.1414,-4.1461,-4.1539,-4.1553,-4.1571,-4.174,-4.1695,-4.1754,-4.1854,-4.1914,-4.1934,-4.1952,-4.2013,-4.2036,-4.1767,-4.1767,-4.1767,0,-4.1347,-4.1429,-4.1394,-4.146,-4.1483,-4.1418,-4.1498,-4.1512,-4.1543,-4.156,-4.1515,-4.1612,-4.1619,-4.1723,-4.1764,-4.178,-4.1801,-4.1753,-4.1934,-4.1952,-4.1968,-4.2026,-4.2049,-4.1774,-4.1773,-4.1772,-4.1772,0,-4.1538,-4.1595,-4.1658,-4.169,-4.172,-4.1793,-4.1768,-4.1802,-4.1774,-4.1764,-4.1847,-4.1853,-4.1894,-4.1917,-4.1889,-4.2017,-4.1992,-4.1942,-4.1861,-4.2001,-4.2054,-4.2076,-4.1784,-4.1782,-4.178,-4.1778,0,0,-4.1767,-4.178,-4.1803,-4.1817,-4.1833,-4.1876,-4.1946,-4.1987,-4.2018,-4.2041,-4.2098,-4.2166,-4.212,-4.214,-4.2113,-4.2166,-4.23,-4.2109,-4.2108,-4.2145,-4.2442,-4.2481,-4.2507,-4.227,-4.2274,-4.2277,-4.2441,0,-4.1928,-4.205,-4.202,-4.214,-4.2193,-4.2131,-4.2192,-4.2208,-4.2201,-4.2244,-4.2235,-4.2284,-4.2219,-4.2231,-4.228,-4.2273,-4.2359,-4.2261,-4.2323,-4.2326,-4.2322,-4.2535,-4.2576,-4.273,-4.2462,-4.2465,-4.2468,0,-4.2132,-4.2165,-4.2291,-4.2299,-4.232,-4.2375,-4.241,-4.2452,-4.2469,-4.246,-4.2483,-4.2446,-4.2514,-4.2434,-4.2527,-4.2461,-4.2485,-4.2485,-4.249,-4.2496,-4.2406,-4.2547,-4.2778,-4.2802,-4.25,-4.2497,-4.2495,0,-4.2289,-4.2363,-4.2448,-4.2462,-4.2473,-4.2514,-4.252,-4.2532,-4.2559,-4.2589,-4.2606,-4.2644,-4.2665,-4.2695,-4.2669,-4.2612,-4.2767,-4.2684,-4.2761,-4.2762,-4.2798,-4.2796,-4.3037,-4.2812,-4.2811,-4.2811,-4.281,0,-4.2472,-4.2552,-4.2519,-4.2571,-4.2659,-4.2623,-4.271,-4.2709,-4.2721,-4.2772,-4.272,-4.2769,-4.2731,-4.2776,-4.2756,-4.2837,-4.2846,-4.2841,-4.2835,-4.2846,-4.2847,-4.2862,-4.2851,-4.2817,-4.2815,-4.2814,-4.2813,0,-4.2661,-4.2643,-4.2732,-4.2735,-4.2738,-4.2802,-4.2804,-4.2853,-4.2842,-4.2907,-4.292,-4.2902,-4.2953,-4.293,-4.2982,-4.2968,-4.3074,-4.3052,-4.3069,-4.3063,-4.3143,-4.3136,-4.3403,-4.3437,-4.3188,-4.3191,-4.3193,0,-4.278,-4.284,-4.2851,-4.2882,-4.2892,-4.2942,-4.2969,-4.2936,-4.2967,-4.2991,-4.3036,-4.3083,-4.3118,-4.3202,-4.3193,-4.3233,-4.3213,-4.3304,-4.3219,-4.3229,-4.3216,-4.3213,-4.3219,-4.3321,-4.3324,-4.3327,-4.3329,0,-4.2994,-4.2982,-4.3023,-4.3063,-4.3097,-4.3126,-4.315,-4.3178,-4.3146,-4.3183,-4.3234,-4.3262,-4.3316,-4.3363,-4.3398,-4.3403,-4.3362,-4.3355,-4.3376,-4.3389,-4.3396,-4.3394,-4.3116,-4.335,-4.3347,-4.3346,-4.3345,-4.3344,-4.3152,-4.3203,-4.3219,-4.3267,-4.3282,-4.3306,-4.3352,-4.3347,-4.339,-4.3433,-4.341,-4.3471,-4.3485,-4.3529,-4.354,-4.3586,-4.355,-4.3579,-4.3587,-4.3595,-4.3606,-4.3388,-4.3592,-4.3592,-4.3591,-4.359,-4.359,0,-4.3364,-4.3371,-4.3416,-4.3452,-4.349,-4.3448,-4.3472,-4.3507,-4.3561,-4.3579,-4.3616,-4.3675,-4.3721,-4.3716,-4.3757,-4.3795,-4.3777,-4.3807,-4.3805,-4.3807,-4.3635,-4.3614,-4.3822,-4.3822,-4.3822,-4.3821,-4.3821,-4.3821,-4.3478,-4.3563,-4.3553,-4.3644,-4.3649,-4.3709,-4.3727,-4.3749,-4.3764,-4.3833,-4.3871,-4.3868,-4.3877,-4.3918,-4.3958,-4.3955,-4.3973,-4.4011,-4.4002,-4.3842,-4.3819,-4.3797,-4.3777,-4.4015,-4.4015,-4.4169,-4.417,-4.4171]}]]